• In Netherlands
  • List of Countries
  • For 7 days
  • Water Temperature
  • Satellite Maps
  • Weather Map
  • Weather Widgets
  • user-avatar
    Login

    Hourly Weather Sliven

    Today, 25 April, Tuesday

    Time Temperature Precipitation Wind Pressure Humidity
    00:00 +3°C° 0 mm 2 mps 737 mmHg 74%
    01:00 +3°C° 0 mm 2 mps 737 mmHg 76%
    02:00 +3°C° 0 mm 2 mps 736 mmHg 76%
    03:00 +3°C° 0 mm 2 mps 736 mmHg 78%
    04:00 +2°C° 0 mm 2 mps 736 mmHg 80%
    05:00 +2°C° 0 mm 2 mps 736 mmHg 82%
    06:00 +4°C° 0 mm 2 mps 737 mmHg 77%
    07:00 +7°C° 0 mm 2 mps 737 mmHg 71%
    08:00 +9°C° 0 mm 2 mps 737 mmHg 65%
    09:00 +11°C° 0 mm 3 mps 737 mmHg 61%
    10:00 +13°C° 0 mm 3 mps 737 mmHg 56%
    11:00 +14°C° 0 mm 4 mps 737 mmHg 51%
    12:00 +15°C° 0 mm 4 mps 737 mmHg 50%
    13:00 +17°C° 0 mm 4 mps 737 mmHg 49%
    14:00 +18°C° 0 mm 4 mps 736 mmHg 48%
    15:00 +17°C° 0 mm 4 mps 736 mmHg 51%
    16:00 +17°C° 0 mm 4 mps 736 mmHg 54%
    17:00 +17°C° 0 mm 4 mps 736 mmHg 57%
    18:00 +13°C° 0 mm 4 mps 735 mmHg 65%
    19:00 +11°C° 0 mm 3 mps 735 mmHg 73%
    20:00 +8°C° 0 mm 3 mps 735 mmHg 81%
    21:00 +8°C° 0 mm 3 mps 735 mmHg 81%
    22:00 +7°C° 0 mm 3 mps 735 mmHg 81%
    23:00 +5°C° 0 mm 3 mps 735 mmHg 81%

    Tomorrow, 26 April, Wednesday

    Time Temperature Precipitation Wind Pressure Humidity
    00:00 +5°C° 0 mm 2 mps 735 mmHg 80%
    01:00 +5°C° 0 mm 2 mps 735 mmHg 80%
    02:00 +4°C° 0 mm 2 mps 735 mmHg 79%
    03:00 +4°C° 0 mm 2 mps 735 mmHg 78%
    04:00 +4°C° 0 mm 2 mps 734 mmHg 77%
    05:00 +4°C° 0 mm 1 mps 734 mmHg 75%
    06:00 +7°C° 0 mm 1 mps 734 mmHg 69%
    07:00 +9°C° 0 mm 1 mps 735 mmHg 62%
    08:00 +11°C° 0 mm 1 mps 735 mmHg 55%
    09:00 +13°C° 0 mm 2 mps 735 mmHg 53%
    10:00 +15°C° 0 mm 2 mps 735 mmHg 51%
    11:00 +17°C° 0 mm 2 mps 735 mmHg 49%
    12:00 +18°C° 0 mm 3 mps 735 mmHg 49%
    13:00 +19°C° 0 mm 3 mps 735 mmHg 48%
    14:00 +20°C° 0 mm 3 mps 734 mmHg 48%
    15:00 +19°C° 0 mm 3 mps 734 mmHg 51%
    16:00 +19°C° 0 mm 3 mps 734 mmHg 54%
    17:00 +19°C° 0 mm 3 mps 734 mmHg 57%
    18:00 +17°C° 0 mm 3 mps 734 mmHg 64%
    19:00 +13°C° 0 mm 3 mps 733 mmHg 72%
    20:00 +11°C° 0 mm 3 mps 733 mmHg 80%
    21:00 +10°C° 0 mm 3 mps 734 mmHg 80%
    22:00 +9°C° 0 mm 3 mps 734 mmHg 81%
    23:00 +8°C° 0 mm 2 mps 734 mmHg 82%

    Day after tomorrow, 27 April, Thursday

    Time Temperature Precipitation Wind Pressure Humidity
    00:00 +8°C° 0 mm 2 mps 734 mmHg 82%
    01:00 +7°C° 0 mm 2 mps 733 mmHg 82%
    02:00 +7°C° 0 mm 2 mps 733 mmHg 83%
    03:00 +6°C° 0 mm 2 mps 733 mmHg 83%
    04:00 +7°C° 0 mm 1 mps 733 mmHg 83%
    05:00 +6°C° 0 mm 1 mps 733 mmHg 83%
    06:00 +9°C° 0 mm 1 mps 733 mmHg 76%
    07:00 +12°C° 0 mm 1 mps 733 mmHg 68%
    08:00 +14°C° 0 mm 1 mps 734 mmHg 61%
    09:00 +16°C° 0 mm 1 mps 734 mmHg 57%
    10:00 +18°C° 0 mm 2 mps 734 mmHg 53%
    11:00 +20°C° 0 mm 2 mps 734 mmHg 49%
    12:00 +21°C° 0 mm 2 mps 734 mmHg 48%
    13:00 +21°C° 0 mm 2 mps 733 mmHg 46%
    14:00 +23°C° 0 mm 2 mps 733 mmHg 45%
    15:00 +22°C° 0 mm 3 mps 733 mmHg 48%
    16:00 +22°C° 0 mm 3 mps 733 mmHg 52%
    17:00 +21°C° 0 mm 3 mps 732 mmHg 55%
    18:00 +19°C° 0 mm 3 mps 732 mmHg 62%
    19:00 +16°C° 0 mm 3 mps 732 mmHg 69%
    20:00 +12°C° 0 mm 3 mps 732 mmHg 76%
    21:00 +12°C° 0 mm 2 mps 732 mmHg 77%
    22:00 +12°C° 0 mm 2 mps 732 mmHg 78%
    23:00 +10°C° 0 mm 2 mps 732 mmHg 78%

    28 April, Friday

    Time Temperature Precipitation Wind Pressure Humidity
    00:00 +9°C° 0 mm 2 mps 732 mmHg 78%
    01:00 +9°C° 0 mm 2 mps 732 mmHg 78%
    02:00 +8°C° 0 mm 2 mps 732 mmHg 78%
    03:00 +8°C° 0 mm 2 mps 732 mmHg 78%
    04:00 +9°C° 0 mm 1 mps 731 mmHg 78%
    05:00 +8°C° 0 mm 1 mps 731 mmHg 78%
    06:00 +11°C° 0 mm 1 mps 731 mmHg 71%
    07:00 +13°C° 0 mm 1 mps 732 mmHg 64%
    08:00 +16°C° 0 mm 1 mps 732 mmHg 57%
    09:00 +18°C° 0 mm 2 mps 732 mmHg 54%
    10:00 +19°C° 0 mm 2 mps 732 mmHg 51%
    11:00 +21°C° 0 mm 3 mps 732 mmHg 48%
    12:00 +22°C° 0 mm 3 mps 732 mmHg 47%
    13:00 +24°C° 0 mm 3 mps 731 mmHg 46%
    14:00 +25°C° 0 mm 3 mps 731 mmHg 45%
    15:00 +24°C° 0 mm 3 mps 731 mmHg 49%
    16:00 +24°C° 0 mm 3 mps 731 mmHg 52%
    17:00 +24°C° 0 mm 3 mps 730 mmHg 56%
    18:00 +20°C° 0 mm 3 mps 730 mmHg 63%
    19:00 +17°C° 0 mm 3 mps 730 mmHg 70%
    20:00 +14°C° 0 mm 3 mps 730 mmHg 77%
    21:00 +14°C° 0 mm 2 mps 730 mmHg 77%
    22:00 +13°C° 0 mm 2 mps 730 mmHg 76%
    23:00 +12°C° 0 mm 2 mps 730 mmHg 76%

    29 April, Saturday

    Time Temperature Precipitation Wind Pressure Humidity
    00:00 +12°C° 0 mm 2 mps 729 mmHg 76%
    01:00 +10°C° 0 mm 2 mps 729 mmHg 75%
    02:00 +11°C° 0 mm 1 mps 729 mmHg 75%
    03:00 +11°C° 0 mm 1 mps 729 mmHg 74%
    04:00 +11°C° 0 mm 1 mps 729 mmHg 74%
    05:00 +10°C° 0 mm 1 mps 728 mmHg 74%
    06:00 +13°C° 0 mm 1 mps 729 mmHg 69%
    07:00 +15°C° 0 mm 1 mps 729 mmHg 64%
    08:00 +19°C° 0 mm 1 mps 729 mmHg 59%
    09:00 +21°C° 0 mm 1 mps 729 mmHg 55%
    10:00 +23°C° 0 mm 2 mps 729 mmHg 52%
    11:00 +25°C° 0 mm 2 mps 730 mmHg 48%
    12:00 +25°C° 0 mm 2 mps 729 mmHg 47%
    13:00 +26°C° 0 mm 2 mps 729 mmHg 46%
    14:00 +27°C° 0 mm 3 mps 729 mmHg 45%
    15:00 +27°C° 0 mm 3 mps 728 mmHg 49%
    16:00 +26°C° 0 mm 3 mps 728 mmHg 53%
    17:00 +26°C° 0 mm 3 mps 728 mmHg 58%
    18:00 +22°C° 0.2 mm 3 mps 728 mmHg 66%
    19:00 +19°C° 0.2 mm 3 mps 728 mmHg 74%
    20:00 +17°C° 0.2 mm 2 mps 729 mmHg 82%
    21:00 +16°C° 0.1 mm 3 mps 729 mmHg 84%
    22:00 +14°C° 0.1 mm 3 mps 729 mmHg 86%
    23:00 +14°C° 0.1 mm 3 mps 730 mmHg 88%

    30 April, Sunday

    Time Temperature Precipitation Wind Pressure Humidity
    00:00 +13°C° 0.2 mm 3 mps 730 mmHg 89%
    01:00 +12°C° 0.2 mm 3 mps 730 mmHg 89%
    02:00 +12°C° 0.2 mm 3 mps 730 mmHg 89%
    03:00 +11°C° 0.1 mm 3 mps 730 mmHg 90%
    04:00 +12°C° 0.1 mm 2 mps 731 mmHg 90%
    05:00 +10°C° 0.1 mm 2 mps 731 mmHg 90%
    06:00 +12°C° 0 mm 2 mps 732 mmHg 85%
    07:00 +14°C° 0 mm 2 mps 732 mmHg 79%
    08:00 +15°C° 0 mm 2 mps 733 mmHg 73%
    09:00 +17°C° 0 mm 3 mps 733 mmHg 69%
    10:00 +18°C° 0 mm 3 mps 733 mmHg 66%
    11:00 +19°C° 0 mm 3 mps 733 mmHg 62%
    12:00 +20°C° 0 mm 3 mps 733 mmHg 62%
    13:00 +20°C° 0 mm 3 mps 733 mmHg 61%
    14:00 +21°C° 0 mm 4 mps 733 mmHg 61%
    15:00 +21°C° 0 mm 4 mps 733 mmHg 64%
    16:00 +20°C° 0 mm 4 mps 733 mmHg 67%
    17:00 +20°C° 0 mm 4 mps 733 mmHg 69%
    18:00 +18°C° 0 mm 3 mps 733 mmHg 76%
    19:00 +16°C° 0 mm 3 mps 733 mmHg 83%
    20:00 +13°C° 0 mm 3 mps 733 mmHg 89%
    21:00 +14°C° 0 mm 2 mps 733 mmHg 90%
    22:00 +13°C° 0 mm 2 mps 733 mmHg 92%
    23:00 +12°C° 0 mm 2 mps 733 mmHg 93%
    Show more